GFSMA_2pvu_pres_000.txt.gz
Presure
176 169 170 171 183 184 191 185 185 187 187 195 195 194 195 192 183 198 204 232 251 215 214 200 164 205 195 204 199 188 181 187 183 182 182 173 174 189 173 179 171 174 171
170 158 168 182 182 187 189 182 184 161 186 183 190 188 189 186 190 196 183 190 201 222 244 232 198 202 200 195 197 195 181 177 188 151 180 149 183 181 182 170 175 168 167
183 188 163 161 184 182 184 184 175 186 190 189 187 181 182 185 182 170 186 195 193 192 195 248 259 207 195 186 199 200 195 183 185 181 177 183 175 185 174 168 171 177 185
181 183 171 157 171 181 182 183 187 175 188 188 178 190 184 180 183 185 182 179 166 193 194 197 198 245 221 195 201 200 199 206 182 184 183 185 190 183 188 183 185 171 180
178 173 183 161 181 166 183 183 144 183 179 168 191 189 202 188 194 191 182 186 185 185 170 193 192 191 226 252 217 202 196 191 201 185 183 182 175 183 182 182 175 161 173
175 175 182 182 166 146 153 161 151 161 152 184 209 209 183 182 184 203 194 211 183 184 196 184 177 194 190 203 225 218 174 202 201 197 192 188 190 180 185 175 172 173 184
171 183 134 184 139 124 156 172 192 202 204 214 166 216 187 175 227 226 174 229 187 146 210 199 201 200 193 195 203 210 225 214 203 196 203 196 183 189 192 183 181 173 180
186 137 175 183 147 204 206 206 209 210 208 206 212 218 212 221 223 227 219 190 218 203 224 220 192 204 202 194 202 190 204 214 252 201 198 200 199 201 193 195 186 185 188
195 200 203 209 207 206 205 204 208 212 210 216 190 195 219 226 226 235 234 255 248 234 206 234 226 226 207 204 200 204 199 204 210 226 224 197 194 201 197 195 184 192 191
206 207 208 205 204 207 207 222 215 227 205 215 214 224 228 223 219 227 279 246 264 241 266 280 176 191 237 225 219 208 197 206 205 205 220 242 201 195 205 202 196 196 192
211 210 195 209 198 203 188 217 236 234 249 230 219 230 249 238 230 249 279 279 264 137 281 307 261 261 263 181 231 231 222 192 211 210 208 215 234 200 193 194 200 197 192
201 200 206 225 234 212 207 244 241 167 255 265 268 269 261 260 261 263 284 279 277 281 290 298 311 320 258 254 245 244 235 229 210 211 211 215 214 237 206 193 193 194 198
221 215 220 221 228 231 238 241 261 264 268 266 269 273 268 267 298 308 306 292 288 285 294 297 304 311 308 300 279 247 250 244 233 224 216 210 214 215 227 233 201 194 192
219 145 224 224 235 240 254 271 287 291 307 314 297 297 310 322 323 318 318 315 305 305 305 304 305 299 302 304 272 280 289 253 256 239 228 224 219 214 215 224 235 205 202
226 228 230 246 253 267 285 308 324 333 333 330 361 341 332 280 281 283 319 328 329 318 314 316 308 304 301 301 309 324 335 363 273 254 254 233 227 222 220 213 222 230 217
228 238 257 260 273 329 323 328 342 344 337 306 369 444 447 450 471 417 327 292 286 314 275 305 315 308 304 299 307 316 311 317 333 284 271 260 251 236 227 216 214 222 220
250 258 276 323 339 339 343 338 333 326 418 410 406 403 416 411 428 434 433 441 365 343 298 289 296 320 303 298 300 307 292 302 309 330 335 328 277 261 250 240 224 209 215
274 296 350 350 339 293 297 425 411 406 434 422 420 413 414 418 414 411 419 418 416 419 401 368 357 306 281 285 291 306 270 276 284 303 319 333 340 354 269 272 258 241 222
342 352 311 285 323 426 410 407 401 411 409 407 403 398 396 395 392 399 401 406 412 417 421 422 417 421 426 381 275 277 275 266 269 278 296 289 291 332 350 311 273 262 264
271 282 303 438 432 411 393 401 400 394 385 384 390 389 386 380 380 378 384 391 393 397 402 407 401 397 397 397 329 259 261 267 266 272 189 309 336 292 302 325 347 294 271
292 411 427 414 398 388 398 391 384 377 369 364 370 379 383 379 372 371 365 362 363 365 371 377 379 372 374 381 383 384 390 392 375 337 338 269 293 336 342 318 315 324 346
435 420 405 401 389 390 386 380 371 364 361 357 356 359 370 378 373 370 366 363 361 360 360 368 367 359 356 363 369 371 373 380 385 391 395 333 311 292 331 342 335 338 319
408 398 402 394 386 379 374 370 362 357 346 343 348 351 357 360 361 362 359 362 364 357 351 349 349 348 353 362 372 374 379 379 382 384 388 386 327 310 293 283 279 282 290
403 395 383 373 367 364 362 362 360 357 353 352 352 345 344 351 356 355 350 344 345 349 344 353 349 348 351 355 356 354 355 390 362 365 368 378 382 387 392 400 403 397 391
385 370 360 362 364 361 353 343 341 338 339 344 349 360 353 339 348 350 341 343 339 347 338 327 361 357 357 365 369 356 330 370 376 375 382 363 352 365 379 396 395 396 389
359 353 354 350 340 470 471 468 462 465 472 327 336 348 358 356 340 344 341 341 323 313 328 322 361 454 447 346 339 340 347 356 363 372 368 367 375 329 341 356 371 396 388

GFSMA_2pvu_pres_006.txt.gz
Presure
174 152 188 185 198 199 193 195 183 195 177 188 183 182 188 186 191 190 189 199 189 194 192 209 222 208 193 202 206 198 213 197 204 196 192 199 202 212 197 188 188 205 201
207 203 202 190 192 195 160 151 194 185 187 183 193 187 169 168 190 185 192 173 201 196 190 191 203 226 207 185 202 215 203 197 203 196 189 190 190 200 214 187 196 201 184
185 192 176 191 192 185 187 185 188 182 190 193 195 195 181 194 184 185 193 195 176 198 182 195 185 190 216 203 190 210 203 198 187 193 186 193 191 208 203 194 201 194 197
195 188 188 171 186 181 189 186 189 193 194 196 195 208 204 174 209 203 219 222 212 189 201 183 199 185 188 208 248 179 187 201 184 202 190 207 186 187 188 180 193 196 183
191 184 137 172 183 182 205 203 203 204 203 204 208 210 207 208 211 182 207 180 189 210 212 230 201 189 195 178 208 203 181 178 194 184 191 190 184 190 181 201 193 181 195
182 182 124 175 209 210 200 199 199 197 203 202 203 200 202 203 202 201 188 145 207 209 205 216 215 178 181 206 181 200 214 188 177 189 190 192 192 184 186 188 188 202 180
181 112 195 201 199 207 204 202 203 200 201 202 203 202 200 194 194 210 213 208 207 205 211 207 210 225 206 169 227 190 198 211 216 182 196 196 186 187 190 185 184 182 184
132 132 196 130 201 201 205 211 212 204 205 210 213 218 194 217 211 199 218 207 153 144 212 206 203 204 201 233 197 187 207 185 206 215 188 182 191 194 183 182 176 183 197
202 124 202 154 207 207 208 213 218 223 215 184 221 226 201 183 217 214 211 222 224 220 213 178 175 209 207 225 228 227 180 227 195 205 215 200 183 192 197 192 180 193 182
119 200 204 207 206 212 216 217 218 227 225 219 212 223 228 236 238 247 217 227 232 230 226 225 208 230 218 221 219 225 216 190 204 195 199 215 218 188 185 203 193 180 181
203 201 205 210 212 210 224 190 218 221 220 233 236 237 249 247 255 236 277 262 249 246 230 231 232 231 254 219 213 226 231 198 230 192 181 201 213 219 204 192 201 191 179
198 168 133 155 126 171 227 220 227 229 236 238 246 253 258 269 281 306 203 363 296 357 233 144 240 221 281 288 284 252 237 239 207 241 198 194 204 197 223 193 185 208 189
202 210 217 220 224 221 217 237 236 239 248 254 261 319 350 346 352 341 278 307 302 267 360 344 342 338 329 344 341 362 329 252 244 266 249 244 196 209 202 223 201 193 206
213 222 225 236 239 244 249 238 257 261 270 344 267 282 268 344 280 270 288 296 302 296 264 270 286 279 276 278 330 342 341 321 291 271 293 258 247 204 194 201 228 212 202
224 232 233 235 248 235 261 258 278 359 276 336 323 306 289 313 460 458 449 441 440 447 480 464 451 299 291 281 282 324 339 329 308 302 301 223 258 241 222 205 207 228 214
238 242 254 262 269 277 279 339 340 337 305 293 392 448 440 434 426 416 417 425 424 422 409 419 433 436 491 316 300 296 335 345 338 318 308 301 299 255 254 212 225 212 225
251 272 337 357 352 350 330 311 285 320 426 436 429 418 413 408 404 401 400 403 400 416 429 397 395 410 426 455 402 311 318 343 350 335 320 312 306 298 240 248 256 231 174
262 284 277 281 275 307 306 392 438 430 423 416 413 407 401 397 393 389 387 387 386 393 399 412 416 379 399 407 440 397 377 316 334 341 335 291 296 298 288 249 267 274 243
289 255 270 327 344 442 429 420 414 412 409 403 398 392 387 384 383 387 383 378 376 379 388 396 391 401 389 375 387 411 429 422 411 308 289 335 343 325 322 315 319 309 312
311 324 347 440 426 418 406 410 399 389 385 372 365 364 365 364 361 363 373 375 369 365 369 388 387 387 391 400 401 408 416 419 417 421 352 283 307 336 322 323 318 307 304
352 448 425 410 403 395 407 394 375 367 366 362 357 355 354 354 355 358 360 371 368 363 362 369 381 375 381 386 394 399 406 414 421 424 435 418 289 304 332 325 320 320 307
428 413 403 414 395 397 388 367 356 354 354 352 376 381 463 341 338 338 355 362 366 358 355 357 370 371 371 370 375 375 379 387 400 411 420 432 445 292 282 315 333 330 324
487 456 423 398 389 373 363 352 346 350 364 405 413 414 418 432 449 442 335 357 363 355 350 353 361 370 359 360 363 361 358 364 370 377 388 407 412 422 339 280 298 326 343
451 416 395 383 364 351 350 348 359 369 406 398 411 426 434 440 439 443 355 339 363 352 347 353 362 369 374 367 366 362 362 364 365 362 366 376 381 394 404 417 291 291 324
412 387 374 357 346 341 340 351 365 400 409 438 440 442 452 472 474 454 328 331 375 354 343 359 360 354 353 351 352 355 354 358 355 358 362 369 367 375 383 391 396 390 292
380 362 348 338 340 336 349 358 397 440 438 429 434 440 447 467 456 451 466 318 358 357 349 359 349 342 338 332 345 351 375 402 379 353 358 369 361 364 368 372 377 383 390

GFSMA_2pvu_pres_009.txt.gz
Presure
209 94 203 185 200 195 194 193 186 189 192 188 170 134 185 189 183 187 189 191 200 182 196 192 208 213 185 192 204 224 207 215 189 217 212 205 195 208 194 198 200 191 184
195 196 192 189 194 194 195 167 188 170 187 184 202 198 197 184 173 199 194 186 194 190 180 196 192 192 215 235 210 199 222 189 211 214 207 206 211 202 204 192 198 189 191
177 188 121 175 196 194 182 181 188 156 207 212 208 212 211 208 209 211 214 224 222 189 206 187 221 190 185 201 216 198 205 193 184 205 220 195 199 192 205 208 197 194 195
195 191 198 188 186 178 190 136 185 193 210 207 208 205 204 204 199 205 207 210 214 207 200 201 193 218 192 181 193 213 199 195 195 190 199 216 198 193 183 196 203 202 203
194 188 187 182 181 187 186 177 202 205 203 198 201 198 201 203 198 196 196 202 207 212 182 183 218 188 208 187 186 187 207 200 190 192 178 197 196 192 198 186 199 192 192
183 190 191 187 185 133 180 198 109 197 201 203 203 199 197 196 196 197 197 201 200 192 205 212 206 217 211 179 183 189 183 205 212 183 193 210 209 198 192 190 195 185 191
191 184 185 200 176 201 133 175 190 201 194 196 195 203 202 213 206 216 209 221 209 213 209 194 195 207 169 218 206 179 191 192 207 212 185 192 208 194 192 190 200 207 183
190 190 186 199 112 195 182 204 195 196 201 203 214 204 219 209 213 206 208 209 211 214 192 188 197 217 209 155 216 214 184 238 192 205 211 187 201 185 200 188 190 193 205
186 202 200 195 199 161 174 198 196 205 205 209 211 218 223 225 221 203 207 208 207 206 209 210 218 179 214 173 207 204 218 189 209 182 211 215 184 196 195 183 194 194 77
195 194 179 200 205 204 213 206 140 130 120 118 223 137 137 238 235 235 227 227 228 226 225 226 224 212 234 219 198 216 205 193 200 220 188 214 213 188 188 202 187 191 196
196 189 182 197 205 197 212 213 219 227 231 237 237 231 240 256 261 263 261 256 239 242 253 256 252 265 266 250 231 237 238 217 211 209 219 184 216 216 192 186 186 201 181
189 206 201 202 210 220 227 232 236 237 243 239 250 262 275 279 298 353 319 318 322 319 364 340 286 281 324 378 361 273 260 243 228 215 212 206 190 210 219 199 191 187 191
206 213 210 218 222 230 243 241 251 259 267 277 297 321 305 304 261 287 333 361 361 350 330 331 338 354 177 361 352 309 368 342 255 241 235 218 229 199 202 221 197 197 189
207 212 226 228 250 256 264 272 297 305 319 305 285 300 276 282 288 301 329 338 339 317 407 315 295 289 290 320 372 281 346 345 366 218 243 243 234 234 206 195 228 217 197
225 236 242 248 257 270 284 284 293 332 327 324 319 313 331 373 457 448 449 442 452 462 459 454 457 463 471 490 295 297 274 275 336 332 361 251 241 254 246 204 205 225 226
235 243 246 289 305 313 349 341 338 337 336 366 439 437 434 437 436 431 427 420 421 421 432 416 424 454 441 443 453 440 210 302 277 312 352 353 256 244 259 248 246 209 213
250 286 295 279 348 346 344 344 416 438 425 416 414 419 416 417 412 412 411 411 410 406 416 405 401 416 435 414 418 438 444 329 309 293 308 354 355 365 329 230 232 239 216
286 283 300 351 347 455 450 431 415 406 403 399 403 403 398 395 391 386 382 388 398 403 409 400 391 397 403 422 405 419 419 419 323 303 299 288 352 356 360 347 317 253 244
358 360 347 458 443 446 445 433 420 402 397 399 391 379 372 371 368 366 368 364 362 365 379 402 387 378 391 402 420 404 399 419 434 327 318 317 302 281 364 341 326 304 287
343 422 442 510 497 481 457 430 411 396 387 373 366 361 357 359 360 359 355 355 355 358 360 366 384 374 372 385 393 413 408 401 426 415 347 331 328 322 284 352 318 308 292
442 454 437 407 397 442 416 398 381 366 360 355 353 355 356 363 375 414 420 427 368 345 350 357 369 371 361 368 386 395 403 379 394 402 391 401 375 341 320 328 331 309 302
475 427 410 398 425 404 388 366 352 348 351 351 355 365 411 408 406 405 410 426 432 336 343 353 361 368 359 365 382 385 392 404 415 371 430 437 414 402 409 295 329 316 304
433 440 428 404 385 367 355 348 347 345 351 361 412 455 455 455 451 448 444 435 436 441 337 349 360 365 358 358 376 380 378 385 395 402 415 419 430 435 440 449 457 325 326
459 418 393 374 356 350 346 341 343 349 369 441 430 439 447 452 442 437 445 460 448 438 337 351 362 361 356 356 369 380 372 366 367 373 376 379 384 399 409 421 427 437 447
410 382 364 348 346 343 340 330 345 353 419 411 409 419 436 454 453 451 474 493 466 452 332 357 369 355 356 363 376 376 369 367 360 355 363 365 363 372 379 390 401 413 419
375 361 347 341 341 339 330 338 340 420 404 399 404 412 423 439 466 456 454 458 453 403 333 367 353 359 373 372 364 355 360 355 354 354 364 369 363 368 368 370 373 382 394

GFSMA_2pvu_pres_012.txt.gz
Presure
208 205 199 199 199 179 178 185 184 189 192 189 185 183 182 171 203 178 194 186 188 187 188 190 192 203 181 183 190 199 203 199 198 192 214 186 186 190 200 207 205 196 190
216 215 188 195 189 184 194 190 190 177 185 174 143 179 174 183 202 212 216 207 216 185 182 189 192 180 197 205 203 204 179 183 183 191 207 208 205 170 214 201 201 191 189
207 192 209 179 193 182 191 182 183 185 166 183 176 178 199 191 202 204 202 208 209 216 219 219 183 193 191 180 199 199 219 203 201 200 195 184 181 183 221 211 212 195 191
196 207 190 191 192 187 177 194 187 186 193 198 188 200 125 179 199 196 199 207 194 196 209 212 220 209 183 210 192 182 206 217 204 183 193 198 214 204 219 209 211 205 197
191 181 178 181 185 188 192 188 181 186 181 199 138 203 178 127 187 174 188 194 193 202 199 211 204 214 216 200 199 201 185 204 215 207 202 204 200 214 205 209 207 205 192
176 185 185 193 192 185 185 185 185 190 121 184 189 141 185 192 195 194 185 193 191 195 192 208 213 211 216 213 207 183 218 188 203 195 199 199 191 206 199 222 206 205 198
185 190 194 190 183 182 186 184 196 198 206 130 198 191 191 187 191 189 192 196 197 197 197 202 205 194 216 225 212 215 225 234 190 196 207 199 195 199 194 190 220 201 203
190 195 192 185 189 190 195 200 136 176 191 193 194 195 195 193 194 176 192 194 196 205 206 199 215 201 206 215 217 223 225 181 226 192 191 211 201 196 190 189 188 209 201
201 198 196 197 198 204 202 195 195 187 208 208 211 220 218 223 219 187 124 125 173 213 214 219 207 216 214 205 211 210 214 216 221 198 195 190 209 200 191 199 188 193 204
193 195 203 208 200 195 201 205 207 217 235 232 218 225 228 244 244 238 236 234 231 215 170 238 236 233 219 227 205 206 206 210 220 222 224 194 191 205 217 195 189 193 189
162 205 200 203 204 213 207 217 218 225 232 231 237 237 245 260 262 273 324 324 294 281 297 269 250 244 241 245 228 218 212 214 188 201 219 232 191 188 195 216 197 187 184
131 197 201 211 206 212 219 220 228 240 255 260 262 266 295 312 307 298 300 320 375 353 322 341 329 315 313 313 296 242 232 224 221 227 186 226 230 188 192 165 213 206 192
205 208 210 211 217 225 237 252 257 261 276 286 305 321 348 348 361 367 364 365 357 343 330 330 305 332 321 301 323 289 392 264 241 231 238 230 231 202 219 194 135 218 196
205 212 216 217 230 255 253 268 272 307 321 350 354 349 356 356 432 434 453 470 467 470 466 349 341 335 331 324 324 269 310 398 353 264 250 245 231 238 206 193 205 194 219
221 232 243 243 255 264 267 293 310 329 366 370 457 450 446 445 443 436 432 432 435 451 428 446 447 465 476 479 473 395 340 325 379 388 372 314 283 256 258 234 225 213 208
242 241 260 262 251 274 318 360 356 451 485 481 447 435 422 415 412 407 404 405 409 420 444 447 424 425 432 444 447 466 480 412 330 312 347 367 351 360 276 259 240 248 211
246 256 266 260 302 352 367 468 451 451 429 482 461 444 426 415 403 398 400 404 403 401 410 418 427 407 407 415 423 431 450 466 470 390 310 300 356 295 348 357 280 250 253
262 276 272 316 373 455 429 432 438 422 443 435 426 418 406 397 391 387 382 377 375 375 383 389 394 402 399 397 403 406 412 449 438 444 479 322 298 344 344 339 321 283 267
257 310 350 380 455 445 428 433 439 414 398 390 382 374 367 363 360 358 357 357 356 355 359 362 365 361 381 394 396 397 405 428 421 426 447 435 313 304 339 343 336 171 290
328 371 442 449 447 439 490 450 403 382 365 356 352 350 353 355 357 358 357 357 355 353 357 360 352 359 360 364 387 391 395 399 416 402 424 432 415 312 298 339 312 334 338
370 471 450 455 463 495 433 394 369 355 349 346 348 350 348 355 361 438 445 430 411 410 417 413 369 356 354 359 376 390 390 390 412 402 405 430 405 397 314 304 286 290 351
462 490 415 489 498 411 383 363 351 346 341 344 338 351 395 433 431 438 455 460 454 451 413 407 413 442 344 353 361 383 387 376 392 409 394 385 456 392 384 325 318 303 271
435 408 396 383 382 375 358 349 346 341 338 350 353 428 418 415 420 431 446 463 462 446 453 444 428 429 431 348 357 376 380 373 383 395 410 419 383 413 418 378 370 340 334
404 391 379 380 364 358 348 342 342 336 348 348 418 412 406 412 418 431 444 458 450 445 449 462 446 440 364 346 356 377 371 368 379 380 391 396 408 379 422 429 410 383 373
382 368 371 361 357 348 340 339 332 327 343 359 401 400 414 425 430 440 453 459 453 483 474 489 457 453 338 349 367 374 361 362 376 368 385 396 398 415 417 397 426 419 432
353 377 367 355 346 336 340 336 324 341 337 403 395 402 405 427 445 458 462 476 449 463 473 468 457 329 350 368 362 354 358 367 371 368 376 373 374 387 394 394 402 413 422

GFSMA_2pvu_pres_018.txt.gz
Presure
196 218 199 224 204 225 223 222 203 204 194 209 208 207 188 185 183 184 191 184 187 180 176 188 195 195 174 195 214 183 178 238 218 192 184 192 188 184 181 195 195 201 178
227 205 208 210 217 201 201 198 194 191 194 195 202 200 185 184 185 192 193 189 183 190 187 189 200 209 206 202 203 207 187 192 218 232 194 209 192 194 179 194 183 180 192
233 209 203 214 204 195 193 193 192 194 201 191 180 182 182 181 183 188 196 193 195 187 182 175 202 204 204 215 201 204 214 191 191 211 232 237 200 194 184 185 182 181 97
212 208 213 201 193 192 191 195 197 189 187 189 187 188 188 182 194 185 182 190 193 191 192 185 196 152 198 201 197 207 209 214 186 186 219 217 221 200 192 196 184 175 186
215 195 195 193 192 194 184 186 185 193 199 191 196 192 193 189 186 188 188 190 192 190 194 196 183 195 194 202 198 190 208 204 214 180 185 222 214 211 204 194 191 184 186
193 194 193 192 193 189 193 184 200 182 184 192 190 189 189 193 195 196 194 193 191 191 192 193 195 196 198 193 188 199 194 205 200 209 187 183 222 203 225 193 194 192 176
188 187 192 197 197 193 193 197 191 190 192 138 190 191 191 191 195 201 203 205 203 204 206 203 196 194 194 196 198 197 201 175 197 201 209 219 182 205 221 216 185 194 189
190 191 193 193 199 194 193 198 186 182 172 175 194 193 197 203 205 196 200 211 217 222 221 217 215 177 203 199 194 203 206 203 201 191 209 197 213 186 204 202 212 211 199
188 193 198 199 185 187 195 146 192 195 200 198 209 214 217 215 219 227 233 230 235 241 246 242 237 239 223 215 212 205 136 204 206 202 186 207 203 207 189 197 201 204 212
196 200 187 188 195 194 196 195 197 200 216 214 220 217 218 227 264 263 260 262 261 261 254 243 245 265 269 258 230 220 216 213 132 184 204 183 205 212 207 211 189 195 194
192 184 193 202 197 198 200 204 213 216 218 217 217 224 249 275 282 287 282 286 313 320 328 295 277 275 278 293 273 271 255 237 226 218 214 219 215 203 202 214 217 192 191
194 205 200 197 200 199 206 209 217 218 219 267 275 284 286 293 276 310 316 332 416 508 508 539 506 447 409 394 365 291 288 305 272 240 227 227 226 219 204 205 209 222 200
194 199 195 200 203 205 217 216 231 272 277 282 290 296 308 347 420 482 485 486 485 488 528 480 532 528 518 460 441 420 378 343 272 277 267 241 238 229 226 217 202 198 217
192 199 200 205 206 217 236 255 285 271 291 301 296 364 466 464 485 461 478 501 489 467 453 477 485 473 475 468 464 466 458 402 389 367 293 281 251 242 236 229 227 210 192
202 201 211 218 211 239 264 285 289 290 291 443 480 472 466 491 451 475 462 445 428 421 413 413 428 447 450 444 441 441 445 464 473 386 380 367 288 261 252 243 240 232 223
207 224 230 239 261 272 279 291 281 400 491 472 486 494 438 463 435 404 395 384 380 383 392 368 369 384 409 432 429 425 426 430 444 463 414 387 359 316 275 258 248 240 239
228 254 256 253 278 273 290 305 494 491 460 434 407 410 402 392 380 371 365 364 364 369 381 373 369 357 364 376 406 418 414 419 419 429 450 459 369 356 319 355 268 250 249
251 264 270 248 284 302 317 496 466 435 408 391 403 392 378 367 359 359 358 359 361 362 364 374 363 351 360 363 369 381 402 415 416 414 427 440 458 391 352 362 365 275 256
262 274 250 271 303 435 490 459 420 392 380 387 381 369 359 353 352 352 352 357 362 368 432 437 434 440 448 368 366 372 371 387 402 408 413 426 436 452 463 360 357 350 322
246 248 271 336 481 481 441 410 383 368 391 380 369 356 353 353 343 361 350 358 418 416 421 430 432 433 434 439 459 369 371 371 380 389 400 410 422 430 441 460 352 358 339
247 268 338 451 467 440 402 376 360 359 379 370 353 355 344 346 353 342 411 402 388 389 435 451 454 443 435 433 449 464 374 371 367 370 378 396 414 415 422 438 456 382 349
279 294 473 460 434 399 373 356 384 373 371 352 354 336 339 340 338 414 396 375 380 389 439 472 467 458 445 445 452 467 475 371 364 362 364 378 401 408 410 424 430 443 365
330 333 457 441 399 380 363 360 377 374 351 352 338 337 332 326 352 402 367 357 361 402 477 485 474 462 464 459 468 475 465 428 367 362 357 366 369 400 397 422 408 405 453
339 463 439 406 380 365 356 369 371 354 347 335 334 333 327 341 412 380 343 334 341 372 489 483 464 444 455 451 473 450 454 421 391 360 354 357 359 389 396 398 410 402 420
462 445 413 381 366 357 354 370 358 347 327 334 330 328 342 357 403 354 334 344 335 334 504 472 449 463 484 451 453 441 447 412 406 387 354 347 353 358 394 384 405 401 408
444 430 393 368 355 361 364 366 352 326 332 322 329 329 346 353 396 343 329 337 350 366 327 450 462 461 494 453 447 450 451 409 408 422 364 342 347 358 386 381 396 409 395

GFSMA_2pvu_pres_021.txt.gz
Presure
230 233 228 230 204 226 216 219 218 213 197 201 198 191 196 196 193 190 187 182 183 185 191 188 192 194 183 188 183 198 196 183 186 204 279 211 201 184 182 184 202 200 180
172 201 214 218 208 212 210 207 205 195 195 196 191 193 193 186 190 195 194 191 192 188 183 183 198 194 188 190 192 183 199 204 193 197 217 260 210 200 188 183 182 198 185
222 214 216 220 220 221 196 193 193 195 192 194 194 193 188 184 192 201 175 185 194 191 193 192 185 187 190 190 183 182 186 198 200 201 179 230 258 207 208 201 194 174 177
211 213 215 214 208 204 193 192 194 195 196 194 190 192 192 190 190 186 184 186 188 184 185 188 194 195 194 194 194 196 202 186 198 199 169 210 221 235 194 192 203 201 180
210 206 209 209 202 192 192 198 192 192 191 195 199 189 186 198 185 185 187 191 191 192 190 187 187 192 199 201 199 195 195 121 189 202 203 215 207 211 223 181 188 195 170
202 199 206 221 194 195 196 189 192 193 199 190 185 184 188 192 104 155 195 196 200 202 199 193 181 189 197 202 203 204 202 202 196 138 205 200 212 192 219 215 195 198 183
204 202 196 195 197 193 192 193 199 198 211 191 193 176 197 195 192 195 192 191 193 194 202 204 204 204 204 203 200 206 205 204 205 198 202 202 205 217 192 206 174 185 189
197 197 197 193 193 197 202 204 202 186 194 195 201 194 194 194 193 192 197 204 207 208 209 208 207 209 209 210 211 210 205 212 208 206 205 199 192 205 217 195 222 206 191
195 199 202 203 202 202 188 191 195 198 202 194 197 203 204 211 217 218 221 219 229 231 230 235 235 227 227 226 224 221 218 213 219 221 212 199 195 211 204 217 200 208 215
205 206 205 203 203 207 203 203 204 193 202 208 215 217 217 222 232 235 234 240 253 269 277 257 264 269 273 260 268 266 257 238 234 226 232 223 216 209 207 208 214 201 202
213 213 206 203 201 198 193 200 205 212 214 211 229 231 238 267 282 294 309 324 317 337 365 397 468 357 292 281 281 289 284 275 249 246 242 237 226 219 213 188 207 213 207
208 208 202 195 194 201 210 210 207 213 221 230 265 280 279 300 304 329 362 514 511 501 492 501 512 505 524 511 536 380 293 294 289 289 262 255 245 234 226 219 195 200 210
189 194 192 201 204 203 207 215 217 241 266 275 285 297 298 334 450 514 504 510 516 517 483 510 508 497 491 479 486 525 542 533 432 283 300 282 263 254 242 233 222 205 189
193 197 204 205 210 205 233 256 269 269 262 281 336 334 487 538 525 454 444 483 482 485 455 431 430 445 448 447 441 467 502 507 516 517 504 375 285 273 261 247 237 219 208
199 195 196 211 210 252 262 268 247 291 313 332 327 483 451 428 412 400 409 403 399 403 390 376 374 376 389 399 402 412 454 478 471 476 493 497 402 301 288 267 251 241 233
197 201 208 219 254 263 245 256 280 312 319 346 460 426 406 395 393 400 389 382 379 385 390 370 364 365 367 372 234 382 387 427 461 453 457 468 478 450 326 291 273 253 243
213 240 246 254 264 237 260 283 293 352 473 447 413 395 380 387 392 381 373 369 372 374 379 372 372 366 364 369 373 381 379 376 401 442 441 444 453 470 480 363 296 279 252
232 257 265 264 253 260 275 304 453 464 441 407 388 372 390 385 377 366 364 362 354 376 370 361 373 430 436 438 373 374 83 376 375 393 428 429 434 441 460 474 372 334 284
255 258 262 243 244 264 337 351 464 436 400 383 372 387 383 373 357 359 344 342 349 348 408 415 388 390 397 415 446 447 449 377 374 376 391 418 418 426 435 455 469 356 328
253 246 249 243 263 329 354 458 435 403 383 371 370 386 373 356 355 337 343 337 337 412 391 373 367 388 401 455 459 462 447 438 381 374 372 388 409 408 418 428 452 463 342
247 255 275 299 371 362 455 440 404 382 368 363 386 372 357 347 339 342 339 352 410 382 350 347 351 434 477 481 476 471 457 441 438 405 370 370 388 405 411 419 431 457 454
232 263 277 281 358 459 437 405 381 366 366 380 371 357 338 338 335 333 353 362 399 350 342 337 347 487 502 485 472 467 458 448 438 447 393 366 370 385 403 411 428 432 456
241 314 283 336 423 445 415 386 374 360 368 374 360 336 335 328 329 338 356 401 358 342 359 369 341 485 469 455 474 465 464 456 450 454 470 365 361 368 382 398 417 430 431
301 277 333 333 397 427 396 370 356 363 373 361 336 325 324 320 348 340 348 393 343 338 343 351 348 342 457 462 466 465 453 454 473 472 476 367 359 360 370 381 404 416 422
268 329 338 400 391 413 381 362 374 369 359 335 312 324 313 338 358 362 373 368 335 340 346 339 353 327 424 481 488 451 465 453 449 456 446 372 358 358 360 367 399 412 427
342 346 390 406 430 396 371 354 369 370 335 309 317 318 337 337 347 361 385 353 330 342 356 357 355 362 322 468 453 450 438 431 438 429 415 377 356 358 353 359 375 405 409

GFSMA_2pvu_pres_024.txt.gz
Presure
202 208 227 237 252 248 207 218 221 220 209 231 208 194 196 201 197 200 203 198 198 184 189 197 198 190 190 195 192 189 185 181 192 191 192 266 203 198 180 190 183 184 192
207 128 222 235 228 223 237 223 218 214 217 203 199 192 194 197 194 196 194 195 199 196 193 191 190 187 196 196 186 192 200 191 184 175 185 188 263 217 194 178 182 174 182
146 217 224 206 229 227 222 223 215 221 204 202 207 203 201 196 191 194 199 198 195 193 189 198 173 181 186 197 192 193 195 191 187 195 186 205 180 212 219 173 188 181 184
210 209 210 214 214 211 215 214 208 205 205 202 199 198 197 200 203 203 198 195 193 189 187 195 189 189 188 190 190 191 192 192 186 188 192 175 191 202 226 191 179 182 180
205 209 213 215 213 204 201 195 197 200 197 198 201 203 204 206 202 187 163 184 193 192 191 192 191 195 193 194 192 189 189 188 195 191 178 182 194 209 183 246 205 182 183
212 215 208 196 194 197 199 201 202 204 206 209 208 206 202 191 196 199 189 207 206 205 199 198 196 194 190 192 193 193 198 201 194 196 202 188 196 195 214 198 220 199 192
205 190 192 202 205 211 208 206 208 206 207 208 207 206 208 207 200 201 198 195 198 202 201 200 112 195 199 197 198 182 203 202 198 196 199 207 210 203 128 214 191 215 191
199 207 201 189 194 211 212 207 208 206 205 204 202 202 202 198 200 201 201 201 203 205 206 205 206 205 205 205 206 205 207 188 202 203 200 203 207 211 192 199 189 208 231
200 203 203 199 197 195 196 200 207 203 195 193 193 194 199 208 219 218 223 232 233 236 235 236 243 246 244 234 223 216 216 217 221 215 213 215 211 213 211 189 199 211 199
194 193 196 196 193 195 204 202 193 192 194 194 213 208 215 224 223 225 265 269 290 291 306 292 311 279 279 284 277 272 256 242 238 240 229 225 222 221 216 218 193 198 209
228 240 233 207 203 199 190 194 209 209 206 206 215 217 224 229 276 268 287 293 352 356 362 374 516 280 528 524 504 308 296 279 268 268 264 245 236 229 229 222 218 193 197
193 200 199 189 184 196 209 205 209 203 215 216 244 275 278 268 259 283 349 372 361 535 492 520 519 516 523 513 514 519 524 518 401 308 270 273 260 253 237 234 222 201 194
194 185 179 193 192 198 203 201 204 216 246 272 270 272 258 315 351 369 361 424 445 429 421 419 420 428 470 480 482 491 510 519 510 518 473 324 305 282 255 253 243 230 217
193 200 194 195 196 204 198 207 259 263 264 266 277 294 293 350 479 456 440 424 412 421 401 401 393 397 403 410 412 425 446 464 481 483 490 537 460 305 289 278 264 251 241
192 183 196 199 218 230 248 261 255 249 250 284 316 328 471 464 445 419 403 393 392 404 395 379 374 376 381 385 388 392 400 405 421 439 455 470 527 548 306 292 280 278 262
184 202 224 231 244 258 257 260 231 249 293 299 336 405 416 430 405 390 378 392 392 393 384 365 366 368 368 371 376 198 206 391 215 399 419 430 461 509 529 314 293 271 279
217 228 237 252 253 245 273 232 291 300 278 380 349 449 421 398 378 371 390 388 377 369 379 348 356 355 360 362 366 370 375 75 390 388 392 405 417 465 492 508 322 298 289
226 244 259 251 250 212 265 278 267 288 353 439 448 418 394 372 368 393 384 366 368 352 352 353 348 351 424 415 405 407 416 429 388 386 388 390 394 409 465 477 487 497 302
233 251 257 236 204 257 283 285 332 354 413 448 420 394 373 364 382 375 363 357 346 349 347 351 379 411 378 370 373 376 384 401 75 436 415 383 392 391 408 454 463 471 371
246 257 264 232 235 260 255 272 364 371 420 423 395 379 367 376 380 363 344 344 336 343 349 367 393 362 361 361 354 357 415 483 315 337 442 452 381 385 386 420 440 451 464
252 259 254 237 261 291 278 335 345 429 431 399 376 361 375 379 353 340 330 335 329 355 364 413 355 350 353 368 355 348 508 495 486 471 454 445 445 377 383 387 430 435 446
255 260 227 255 287 272 325 334 411 435 410 383 362 347 382 344 331 326 323 346 360 363 402 359 344 346 346 366 357 408 468 487 481 467 461 452 442 412 373 379 403 422 428
260 263 253 264 283 266 339 368 447 426 393 368 376 385 336 327 321 326 337 337 345 357 405 344 341 347 366 367 335 465 467 455 466 459 458 449 444 443 373 371 377 415 417
267 270 260 288 266 320 337 380 438 407 380 353 381 331 325 319 343 343 344 347 338 361 369 338 342 358 365 365 349 407 487 476 456 449 455 447 446 446 458 365 370 401 415
250 264 279 276 315 342 384 447 430 393 363 377 324 321 312 332 336 342 349 350 347 386 348 334 348 346 361 363 363 395 456 481 455 448 454 465 454 457 466 363 363 382 408
261 270 280 268 329 353 375 443 415 379 361 338 325 313 320 326 333 340 359 350 347 391 337 338 338 339 352 361 363 332 454 444 438 444 454 464 472 476 446 361 362 373 391

GFSMA_2pvu_pres_030.txt.gz
Presure
194 191 193 194 196 209 220 207 259 261 256 241 235 227 229 217 198 218 214 223 195 225 209 205 201 201 193 189 201 193 188 199 207 193 197 194 201 193 214 220 205 208 192
192 199 201 218 221 207 200 167 225 241 228 235 219 204 215 212 222 221 216 229 206 224 229 218 217 204 198 187 186 191 200 191 201 194 184 179 196 205 199 212 217 211 213
201 203 211 213 210 231 229 226 212 224 218 211 205 212 219 203 205 203 210 212 209 212 206 215 220 224 229 194 194 198 196 203 194 192 200 184 182 192 199 210 218 207 191
221 208 218 231 223 223 230 228 227 208 206 203 204 203 193 191 204 200 199 200 201 205 206 209 210 209 215 230 230 217 213 192 197 196 187 193 191 184 198 192 217 202 204
222 222 221 214 217 230 228 218 205 205 197 202 203 192 202 217 222 234 239 237 237 237 239 213 207 208 212 219 220 220 222 220 210 206 197 197 192 188 188 198 197 199 190
212 214 215 224 225 207 202 204 202 205 208 206 203 234 243 232 219 212 205 209 209 196 206 209 210 212 215 214 213 219 142 215 219 204 209 203 208 204 202 195 200 236 192
228 224 217 209 198 205 197 208 218 258 252 239 218 214 212 210 209 209 207 203 203 205 208 213 214 215 213 215 218 219 214 221 223 217 215 206 206 214 201 201 196 193 231
205 198 197 201 211 229 263 267 228 221 217 216 213 209 206 200 198 196 199 205 212 217 228 230 235 234 239 240 239 235 234 232 233 234 222 219 215 195 204 200 197 195 227
195 209 225 221 238 237 228 217 212 210 208 206 201 199 201 199 204 211 218 226 224 229 235 266 278 276 279 291 291 281 267 245 226 232 242 241 235 223 204 201 200 199 193
236 228 221 219 217 214 210 206 207 211 196 195 205 203 205 206 214 232 245 272 242 280 283 283 285 287 239 236 269 292 243 251 334 305 252 237 241 242 226 211 196 204 226
224 221 213 212 211 209 203 201 196 203 202 203 193 209 224 222 234 251 275 271 275 286 290 291 277 293 386 308 478 489 490 502 326 314 352 321 278 256 242 235 186 197 208
228 226 218 209 201 210 194 200 202 197 198 202 210 210 229 259 273 272 266 259 276 329 331 362 464 468 461 452 450 444 445 451 459 465 471 476 372 318 297 262 245 212 184
217 225 221 218 184 200 205 204 196 197 203 214 229 257 278 276 273 270 328 343 381 374 403 463 449 435 425 421 417 410 408 409 423 428 441 454 465 475 512 329 272 251 214
228 221 219 215 211 206 202 204 204 203 220 245 270 273 264 254 249 268 308 297 377 480 465 432 413 402 400 397 400 419 417 415 414 419 422 427 435 441 459 479 429 288 253
230 227 218 207 202 200 208 207 217 243 264 268 268 267 282 238 297 287 291 365 430 470 445 407 392 383 385 407 401 392 387 389 392 394 399 407 419 426 427 444 466 497 340
231 215 207 203 202 211 208 225 240 256 262 246 243 241 236 314 276 330 345 405 455 433 418 392 372 391 393 380 367 361 361 363 365 371 374 384 397 409 417 427 438 453 479
218 205 204 202 211 207 228 249 265 254 252 241 228 281 285 288 378 352 412 457 430 405 393 395 388 360 354 353 343 341 345 353 358 367 370 376 387 389 396 411 424 430 442
199 204 208 214 213 230 241 264 252 240 231 225 280 271 273 335 358 379 400 433 400 399 399 353 345 333 330 342 351 362 365 372 384 438 423 410 411 234 386 389 410 425 424
200 208 213 217 236 251 264 244 246 227 235 272 306 273 351 367 355 396 441 410 385 375 342 334 331 346 354 360 366 368 369 368 409 380 326 377 379 387 394 409 414 403 417
208 211 219 234 243 253 251 256 230 263 263 308 275 332 341 335 406 424 418 389 360 336 327 339 342 350 361 372 367 368 384 380 365 359 358 367 371 373 382 389 402 425 406
217 230 234 231 259 237 235 236 240 267 256 256 324 333 348 394 389 429 399 366 338 327 332 333 344 354 381 372 364 381 373 356 352 366 370 382 388 390 390 395 389 399 426
233 232 268 250 242 248 240 248 243 290 305 329 321 322 353 402 371 420 381 341 327 325 324 325 343 405 377 366 371 366 351 357 344 361 369 380 395 459 407 397 379 387 400
243 262 250 243 255 239 253 264 290 244 318 318 328 316 414 384 432 398 357 331 319 319 321 318 341 388 374 361 377 345 345 345 346 357 379 376 498 492 360 357 355 360 406
258 250 259 260 235 259 269 281 289 309 330 339 317 410 393 368 419 384 342 324 318 308 313 314 338 395 355 399 346 348 338 345 350 367 369 491 490 373 412 471 481 466 453
251 256 246 253 259 256 301 307 306 321 310 337 350 411 376 358 401 367 333 320 312 307 307 310 328 393 370 357 345 338 345 349 354 368 451 444 458 465 466 460 462 462 447
259 258 239 255 266 259 307 309 330 322 371 321 383 394 360 415 381 356 328 318 310 303 300 306 318 356 385 342 339 339 343 348 366 357 422 432 442 454 448 452 450 452 446

GFSMA_2pvu_pres_033.txt.gz
Presure
194 188 188 182 191 189 187 184 191 191 203 221 224 236 235 237 233 221 214 228 211 208 208 206 209 214 227 200 203 206 197 221 214 195 198 227 207 192 201 210 205 211 236
186 198 191 184 185 184 180 189 201 193 221 213 239 232 244 222 210 218 206 211 214 213 204 202 215 209 215 204 210 225 199 202 212 200 198 192 216 198 199 188 190 207 192
199 184 181 189 196 198 206 208 223 223 231 241 247 242 210 215 206 211 214 208 210 199 211 224 234 258 256 259 217 213 219 201 195 200 199 203 201 208 191 198 184 218 216
184 193 200 191 197 205 213 208 216 223 238 232 206 214 207 210 224 232 261 264 254 255 245 243 238 229 217 215 239 256 228 206 228 209 203 195 194 213 196 194 196 193 216
198 192 198 206 209 204 213 232 231 227 212 204 210 215 233 280 283 237 222 214 215 218 224 222 218 210 211 209 210 200 199 196 198 212 224 203 199 198 215 186 192 190 202
192 202 215 206 210 236 234 224 208 200 197 219 224 233 233 233 218 219 218 213 205 203 213 207 200 202 209 212 212 210 212 218 215 207 201 223 214 202 202 212 193 190 196
209 206 203 236 229 217 203 202 192 228 236 235 231 218 210 208 204 197 201 205 205 206 211 215 219 223 225 225 223 237 238 234 235 221 225 214 213 231 206 201 207 195 193
219 225 212 204 199 212 227 231 231 223 228 227 219 221 212 203 212 206 206 203 201 203 211 218 224 221 231 244 251 252 249 265 261 250 244 240 225 213 231 210 195 155 197
208 194 206 202 214 223 227 222 231 229 223 225 215 211 197 208 206 199 197 201 200 204 216 220 259 278 280 290 294 293 294 290 299 310 285 258 260 231 230 216 214 200 204
216 193 196 208 221 223 229 238 229 226 227 228 222 223 221 212 208 207 208 205 210 261 279 271 273 278 281 269 267 268 339 397 318 330 317 313 318 246 247 233 228 217 204
204 203 207 195 206 213 215 234 233 227 219 218 214 208 200 204 205 212 283 265 262 255 258 274 301 256 267 325 451 471 493 492 500 339 348 329 295 325 294 272 235 222 215
199 196 205 209 198 236 245 239 233 219 214 207 206 203 218 249 267 270 261 252 250 248 240 287 389 389 452 481 472 467 456 452 457 460 464 467 471 340 287 285 278 252 219
203 208 201 210 226 240 218 212 206 206 208 225 229 236 250 273 290 250 252 272 233 342 286 371 405 460 462 449 439 429 420 419 419 424 431 436 443 452 464 327 307 292 258
194 203 201 214 237 212 205 203 207 216 223 228 235 247 261 247 247 265 237 237 340 357 369 369 466 454 437 426 409 400 399 394 394 416 433 439 442 440 435 448 463 467 330
202 203 208 232 219 201 205 206 213 219 221 246 239 266 253 248 260 237 288 255 331 361 356 418 462 433 414 402 394 394 405 402 398 396 397 403 410 417 427 435 438 447 340
201 198 226 228 204 204 207 209 218 217 243 259 264 249 246 258 253 321 336 324 348 343 395 478 437 411 397 401 385 366 359 359 362 364 344 369 379 391 403 416 425 434 439
201 206 228 212 204 207 209 214 216 237 260 265 259 250 247 252 315 284 322 254 344 366 440 445 409 397 358 348 341 341 351 356 357 353 355 356 361 372 382 392 405 418 428
203 207 237 206 208 213 214 219 238 257 252 255 244 238 238 244 321 318 323 346 331 411 456 418 373 350 339 340 349 350 359 369 373 370 375 383 381 388 405 396 386 393 408
204 235 206 205 215 212 220 257 255 250 239 254 261 238 273 277 315 307 313 327 338 403 433 387 351 336 336 335 342 357 381 379 382 377 379 383 408 417 412 409 415 427 391
231 210 200 215 210 233 256 253 258 257 263 263 269 273 284 323 310 306 305 339 407 446 412 361 334 329 325 329 346 392 397 385 372 372 396 384 380 379 379 384 388 391 399
212 201 217 214 239 254 255 267 249 252 252 258 263 323 324 315 318 317 346 386 394 427 386 346 328 322 320 321 356 399 384 365 394 385 362 356 294 371 369 379 376 383 387
209 218 224 251 269 275 260 252 258 264 267 301 316 326 311 325 320 322 361 366 386 409 361 334 320 313 313 317 367 366 381 394 359 362 347 343 360 356 366 371 387 402 405
217 241 252 272 265 198 247 261 259 268 304 325 342 320 317 320 328 373 395 382 427 394 351 325 314 310 305 313 360 389 380 352 353 345 343 357 358 365 385 390 429 414 409
242 261 271 256 254 257 265 258 272 276 295 323 324 323 325 350 354 384 386 365 405 380 343 325 312 305 305 309 355 402 350 346 348 351 349 364 373 445 474 496 488 478 485
257 266 270 272 251 260 264 277 292 327 350 335 334 340 372 398 353 390 365 355 387 368 336 323 312 301 301 306 328 384 350 344 341 346 360 365 411 429 458 470 474 472 473
272 271 257 250 258 266 269 325 342 339 346 348 374 343 390 352 396 374 353 397 370 358 331 321 311 302 298 299 319 395 348 338 333 347 364 349 409 409 451 459 465 462 460